Home   Weather   El Paso   Past weeks

Flag for USA Past Weather in El Paso, Texas, USA — Yesterday and Last 2 Weeks

Now
59 °F

Scattered clouds.


Feels Like: 59 °F
Forecast: 35 / 63 °F
Wind: No wind

Location: El Paso International Airport

Current Time: Dec 2, 2016 at 1:10:18 pm

Latest Report: Dec 2, 2016 at 11:51 am


Visibility: 10 mi

Pressure: 29.82 "Hg (26.04 "Hg at 1142m altitude)

Humidity: 24%

Dew Point: 22 °F

Location of El PasoLocation

Past Weather in El Paso — Graph

°F

El Paso Temperature Yesterday

Maximum temperature yesterday: 60 °F (at 2:51 pm)
Minimum temperature yesterday: 28 °F (at 4:51 am)
Average temperature yesterday: 44 °F

High & Low Weather Summary for the Past Weeks

 TemperatureHumidityPressure
High77 °F (Nov 17, 1:51 pm)66% (Nov 26, 4:51 am)30.46 "Hg (Nov 26, 4:51 am)
Low28 °F (Dec 1, 4:51 am)9% (Nov 24, 3:51 pm)29.55 "Hg (Nov 28, 3:51 pm)
Average52 °F35%29.98 "Hg
* Reported Nov 17 11:51 am — Dec 2 11:51 am, El Paso, Weather by CustomWeather, © 2016

Note: Actual official high and low records may vary slightly from our data, if they occured in-between our weather recording intervals... More about our weather records

Advertising

El Paso Weather History for the Previous 24 Hours

Scroll right to see more
 ConditionsComfort  
Time TempWeatherWind HumidityBarometerVisibility
11:51 am
Fri, Dec 2
59 °FScattered clouds.No wind24%29.82 "Hg10 mi
10:51 am55 °FBroken clouds.5 mph27%29.87 "Hg10 mi
9:51 am49 °FBroken clouds.7 mph31%29.88 "Hg10 mi
8:51 am47 °FScattered clouds.10 mph30%29.88 "Hg10 mi
7:51 am38 °FScattered clouds.8 mph41%29.88 "Hg10 mi
6:51 am37 °FScattered clouds.7 mph42%29.87 "Hg10 mi
5:51 am41 °FPassing clouds.10 mph38%29.82 "Hg10 mi
4:51 am41 °FPassing clouds.7 mph38%29.80 "Hg10 mi
3:51 am41 °FPassing clouds.7 mph41%29.79 "Hg10 mi
2:51 am40 °FPassing clouds.6 mph41%29.82 "Hg10 mi
1:51 am40 °FPassing clouds.7 mph40%29.82 "Hg10 mi
12:51 am40 °FPassing clouds.9 mph41%29.83 "Hg10 mi
11:51 pm
Thu, Dec 1
40 °FClear.6 mph49%29.83 "Hg10 mi
10:51 pm41 °FClear.6 mph47%29.85 "Hg10 mi
9:51 pm44 °FClear.6 mph45%29.86 "Hg10 mi
8:51 pm47 °FClear.3 mph39%29.87 "Hg10 mi
7:51 pm49 °FClear.3 mph38%29.88 "Hg10 mi
6:51 pm48 °FPassing clouds.7 mph37%29.88 "Hg10 mi
5:51 pm54 °FPassing clouds.No wind30%29.86 "Hg10 mi
4:51 pm56 °FScattered clouds.3 mph29%29.85 "Hg10 mi
3:51 pm58 °FScattered clouds.5 mph28%29.83 "Hg10 mi
2:51 pm60 °FPassing clouds.6 mph28%29.83 "Hg10 mi
1:51 pm58 °FPassing clouds.No wind23%29.83 "Hg10 mi
Weather by CustomWeather, © 2016

See weather overviewHow to use our weather pages